{"data":{"norad_id":64834,"intl_designator":"2025-151U","name":"KUIPER-00089","alt_names":[],"object_type":"PAYLOAD","status":"ACTIVE","operator":null,"country":"US","launch_date":"2025-07-16","launch_site_code":"AFETR","launch_vehicle":null,"mission":null,"orbit_class":"UNKNOWN","rcs_meters":null,"size_class":null,"mass_kg":null,"dimensions":null,"purposes":[],"wikipedia_slug":null,"has_3d_model":false,"image_url":null,"decayed_at":null,"tle_current":{"epoch":"2026-09-21T20:22:44.825088Z","epoch_age_seconds":54747,"freshness":"FRESH","line1":"1 64834U 25151U   26264.84912992  .00001595  00000+0  23816-3 0  9995","line2":"2 64834  51.9015 138.1791 0000664 106.4877 253.6159 14.79929163 64560","mean_motion":14.79929163,"eccentricity":6.64e-5,"inclination_deg":51.9015,"raan_deg":138.1791,"arg_perigee_deg":106.4877,"mean_anomaly_deg":253.6159,"bstar":0.00023816,"rev_number":6456,"period_min":97.301954444964,"perigee_km":629.08243139251,"apogee_km":630.0130519262,"semimajor_km":7007.6847416594,"source":"CELESTRAK","updated_at":"2026-09-22T09:00:29.978122Z"}}}